Search the data

BODC Cruise Metadata Report for FRV Scotia (748S) cruise 0307S

Introduction

This report collates information from the BODC cruise inventory and oceanographic databases. It presents

Cruise Inventory Information

Long name FRV Scotia (748S) cruise 0307S
Short name 0307S
Objectives and Narrative Demersal trawling survey of the grounds off the north and west coasts of Scotland.
Ship FRV Scotia
Departure Port Aberdeen, United Kingdom
Departure Date 2007-03-09
Arrival Port Aberdeen, United Kingdom
Arrival Date 2007-03-29
Principal Scientist(s) Kevin J Peach (Fisheries Research Services Aberdeen Marine Laboratory)
Responsible Organisation Fisheries Research Services Aberdeen Marine Laboratory
Associated Project(s) RVO703
IHB Sea Areas Visited Inner Seas off the West Coast of Scotland, Irish Sea and St. George's Channel, North East Atlantic Ocean (limit 40W)
Marsden Squares Visited 181;3/181;4/182;3
Work Area Description West of Scotland, Irish Sea, northeast Atlantic
Work Area Bounding Polygon 55N,15W; 60N,15W; 60N,0E; 55N,0E; 55N,15W
Southern Limit 55N
Northern Limit 60N
Western Limit 15W
Eastern Limit 0E

Cruise Inventory Datasets

Physical oceanography  
CTD stations Quantity: number of stations = 67
Description:  

Cruise Inventory Mooring/Buoy Operations

No information on datasets is currently available

Summary of BODC Data Holdings for the Cruise

National Oceanographic Database

Summary

# Series Instrument Description Parameters
67 CTD/STD cast Chlorophyll pigment concentrations in water bodies
Electrical conductivity of the water column
Reference numbers
Salinity of the water column
Temperature of the water column
Transmittance and attenuance of the water column
Vertical spatial coordinates

Note: Parameter terms are taken from the BODC Parameter Discovery Vocabulary XML (SKOS)

Full List

BODC Reference Instrument Description Date/Time Location  
899603 CTD/STD cast 2007-03-11 06:46Z 58° 22' N, 5° 57' W Click for more
899615 CTD/STD cast 2007-03-11 09:16Z 58° 24' N, 5° 36' W Click for more
899627 CTD/STD cast 2007-03-11 12:43Z 58° 7' N, 6° 7' W Click for more
899639 CTD/STD cast 2007-03-11 14:37Z 57° 58' N, 6° 14' W Click for more
899640 CTD/STD cast 2007-03-11 18:34Z 58° 3' N, 5° 43' W Click for more
899652 CTD/STD cast 2007-03-12 07:01Z 58° 36' N, 5° 39' W Click for more
899664 CTD/STD cast 2007-03-12 10:28Z 58° 46' N, 6° 6' W Click for more
899676 CTD/STD cast 2007-03-12 13:31Z 58° 49' N, 5° 55' W Click for more
899688 CTD/STD cast 2007-03-13 06:07Z 59° 16' N, 6° 19' W Click for more
899707 CTD/STD cast 2007-03-13 07:57Z 59° 14' N, 6° 28' W Click for more
899719 CTD/STD cast 2007-03-13 12:02Z 58° 51' N, 6° 46' W Click for more
899720 CTD/STD cast 2007-03-13 14:58Z 58° 43' N, 7° 9' W Click for more
899732 CTD/STD cast 2007-03-14 06:03Z 57° 19' N, 8° 28' W Click for more
899744 CTD/STD cast 2007-03-14 09:38Z 57° 19' N, 9° 0' W Click for more
899756 CTD/STD cast 2007-03-14 12:56Z 57° 41' N, 9° 4' W Click for more
899768 CTD/STD cast 2007-03-14 16:59Z 57° 34' N, 8° 28' W Click for more
899781 CTD/STD cast 2007-03-15 06:06Z 57° 59' N, 8° 38' W Click for more
899793 CTD/STD cast 2007-03-15 08:44Z 58° 4' N, 8° 50' W Click for more
899800 CTD/STD cast 2007-03-15 10:52Z 58° 4' N, 8° 59' W Click for more
899812 CTD/STD cast 2007-03-15 14:04Z 58° 18' N, 9° 4' W Click for more
899824 CTD/STD cast 2007-03-15 18:56Z 58° 16' N, 8° 25' W Click for more
899836 CTD/STD cast 2007-03-17 07:01Z 57° 42' N, 5° 57' W Click for more
899848 CTD/STD cast 2007-03-17 09:40Z 58° 0' N, 5° 48' W Click for more
899861 CTD/STD cast 2007-03-17 12:32Z 57° 58' N, 6° 13' W Click for more
899873 CTD/STD cast 2007-03-20 06:02Z 57° 7' N, 6° 44' W Click for more
899885 CTD/STD cast 2007-03-20 08:39Z 57° 5' N, 7° 3' W Click for more
899897 CTD/STD cast 2007-03-20 12:04Z 56° 44' N, 7° 0' W Click for more
899904 CTD/STD cast 2007-03-20 14:48Z 56° 39' N, 7° 19' W Click for more
899916 CTD/STD cast 2007-03-20 18:36Z 56° 25' N, 7° 27' W Click for more
899928 CTD/STD cast 2007-03-21 06:05Z 56° 18' N, 8° 25' W Click for more
899941 CTD/STD cast 2007-03-21 08:57Z 56° 37' N, 8° 24' W Click for more
899953 CTD/STD cast 2007-03-21 11:29Z 56° 49' N, 8° 33' W Click for more
899965 CTD/STD cast 2007-03-21 14:12Z 56° 46' N, 9° 1' W Click for more
899977 CTD/STD cast 2007-03-21 18:53Z 56° 11' N, 9° 4' W Click for more
899989 CTD/STD cast 2007-03-22 07:28Z 55° 49' N, 9° 4' W Click for more
899990 CTD/STD cast 2007-03-22 10:05Z 55° 28' N, 9° 16' W Click for more
900009 CTD/STD cast 2007-03-22 13:52Z 55° 12' N, 10° 3' W Click for more
900010 CTD/STD cast 2007-03-22 18:29Z 55° 6' N, 9° 22' W Click for more
900022 CTD/STD cast 2007-03-23 06:02Z 55° 20' N, 8° 28' W Click for more
900034 CTD/STD cast 2007-03-23 09:35Z 55° 49' N, 8° 22' W Click for more
900046 CTD/STD cast 2007-03-23 12:01Z 55° 50' N, 7° 47' W Click for more
900058 CTD/STD cast 2007-03-23 16:03Z 55° 27' N, 7° 34' W Click for more
900071 CTD/STD cast 2007-03-24 06:59Z 55° 24' N, 6° 45' W Click for more
900083 CTD/STD cast 2007-03-24 12:57Z 55° 13' N, 5° 12' W Click for more
900095 CTD/STD cast 2007-03-24 15:14Z 55° 24' N, 4° 54' W Click for more
900102 CTD/STD cast 2007-03-24 18:47Z 55° 42' N, 5° 9' W Click for more
900114 CTD/STD cast 2007-03-25 06:06Z 55° 52' N, 6° 44' W Click for more
900126 CTD/STD cast 2007-03-25 08:42Z 55° 59' N, 7° 13' W Click for more
900138 CTD/STD cast 2007-03-25 11:03Z 56° 11' N, 7° 22' W Click for more
900151 CTD/STD cast 2007-03-25 13:55Z 56° 23' N, 6° 47' W Click for more
900163 CTD/STD cast 2007-03-25 18:04Z 56° 35' N, 7° 18' W Click for more
900175 CTD/STD cast 2007-03-26 06:32Z 58° 15' N, 8° 28' W Click for more
900187 CTD/STD cast 2007-03-26 09:42Z 58° 31' N, 8° 6' W Click for more
900199 CTD/STD cast 2007-03-26 12:02Z 58° 22' N, 7° 55' W Click for more
900206 CTD/STD cast 2007-03-26 14:57Z 58° 13' N, 7° 17' W Click for more
900218 CTD/STD cast 2007-03-26 17:24Z 58° 29' N, 7° 26' W Click for more
900231 CTD/STD cast 2007-03-27 05:33Z 59° 1' N, 5° 54' W Click for more
900243 CTD/STD cast 2007-03-27 09:56Z 59° 21' N, 5° 6' W Click for more
900255 CTD/STD cast 2007-03-27 12:00Z 59° 35' N, 5° 9' W Click for more
900267 CTD/STD cast 2007-03-27 17:48Z 59° 26' N, 3° 53' W Click for more
900279 CTD/STD cast 2007-03-28 05:32Z 58° 54' N, 3° 49' W Click for more
900280 CTD/STD cast 2007-03-28 09:36Z 59° 13' N, 4° 6' W Click for more
900292 CTD/STD cast 2007-03-28 12:36Z 59° 15' N, 4° 50' W Click for more
900311 CTD/STD cast 2007-03-28 14:27Z 59° 9' N, 5° 10' W Click for more
900323 CTD/STD cast 2007-03-28 17:38Z 59° 21' N, 5° 23' W Click for more
900335 CTD/STD cast 2007-03-29 06:03Z 58° 49' N, 4° 47' W Click for more
900347 CTD/STD cast 2007-03-29 11:34Z 58° 42' N, 4° 21' W Click for more

Project Database

No data currently held for this cruise in the BODC Project Database

References

Track Charts

No track charts currently available

Reports

No reports currently available